Location: Ahausen
(50.4985°N, 8.2722°E)
Time: 01:11:22
(UTC+00:00)

ITUPSAT 1 - Pass Details

Date: 07 July 2022
Orbit: 701 x 711 km, 98.6° (Epoch: 09 August)

Event Time Altitude Azimuth Distance (km) Brightness Sun altitude
Rises 20:19:50 0° 13° (NNE) 3,116 ? -5.6°
Reaches altitude 10° 20:22:06 10° 11° (N) 2,194 ? -5.8°
Maximum altitude 20:26:53 71° 289° (WNW) 755 ? -6.4°
Drops below altitude 10° 20:31:38 10° 206° (SSW) 2,182 ? -6.9°
Sets 20:33:54 0° 204° (SSW) 3,098 ? -7.1°
